Weather History for Douglas, WY

Change the Weather History Date:

Friday, January 4, 2013

  Actual Average Record
Temperature  
Mean Temperature 19 °F 25 °F  
Max Temperature 39 °F 39 °F 53 °F (2012)
Min Temperature -1 °F 11 °F -13 °F (2009)
Degree Days  
Heating Degree Days 46 40  
Month to date heating degree days 188 162  
Since 1 July heating degree days 2815 3251  
Cooling Degree Days 0 0  
Month to date cooling degree days 0 0  
Year to date cooling degree days 0 0  
Moisture  
Dew Point 5 °F    
Average Humidity 59    
Maximum Humidity 79    
Minimum Humidity 38    
Precipitation  
Precipitation 0.00 in 0.01 in 0.09 in (2005)
Month to date precipitation T 0.05  
Year to date precipitation T 0.05  
Sea Level Pressure  
Sea Level Pressure 30.30 in    
Wind  
Wind Speed 5 mph (NW)    
Max Wind Speed 17 mph    
Max Gust Speed 22 mph    
Visibility 10 miles    
Events      
T = Trace of Precipitation, MM = Missing Value Source: NWS Daily Summary

Daily Weather History Graph

Daily Weather History Graph

Search for Another Location

Airport:

Trip Planner

Search our weather history database for the weather conditions in past years. The results will help you decide how hot, cold, wet, or windy it might be!

Date:

Astronomy

Jan. 04, 2013 Rise Set
Actual Time 7:32 AM MST 4:41 PM MST
Civil Twilight 7:00 AM MST 5:13 PM MST
Nautical Twilight 6:24 AM MST 5:48 PM MST
Astronomical Twilight 5:50 AM MST 6:23 PM MST
Moon No Moon Rise 11:05 AM MST (1/4)
Length of Visible Light 10h 12m
Length of Day
9h 09m
Waning Gibbous, 54% of the Moon is Illuminated
Jan 4
Waning Gibbous
Jan 4
Last Quarter
Jan 11
New
Jan 18
First Quarter
Jan 26
Full

Hourly Weather History & Observations

Time (MST) Temp. Windchill Dew Point Humidity Pressure Visibility Wind Dir Wind Speed Gust Speed Precip Events Conditions
12:53 AM 8.1 °F - -0.9 °F 67% 30.33 in 10.0 mi Calm Calm - N/A   Clear
1:53 AM 6.1 °F - -2.9 °F 67% 30.32 in 10.0 mi Calm Calm - N/A   Clear
2:53 AM 3.9 °F - -4.0 °F 70% 30.33 in 10.0 mi Calm Calm - N/A   Clear
3:53 AM 5.0 °F - -2.9 °F 70% 30.33 in 10.0 mi Calm Calm - N/A   Clear
4:53 AM 10.9 °F 4.7 °F -0.0 °F 61% 30.33 in 10.0 mi NW 3.5 mph - N/A   Clear
5:53 AM 1.9 °F - -4.0 °F 76% 30.38 in 10.0 mi Calm Calm - N/A   Clear
6:53 AM 3.9 °F - -4.0 °F 70% 30.36 in 10.0 mi Calm Calm - N/A   Clear
7:53 AM 1.9 °F - -4.0 °F 76% 30.38 in 10.0 mi Calm Calm - N/A   Clear
8:53 AM 12.9 °F - 3.0 °F 65% 30.35 in 10.0 mi Calm Calm - N/A   Clear
9:53 AM 18.0 °F - 3.0 °F 52% 30.34 in 10.0 mi Calm Calm - N/A   Clear
10:53 AM 24.1 °F - 6.1 °F 46% 30.29 in 10.0 mi Calm Calm - N/A   Clear
11:53 AM 27.0 °F - 10.0 °F 49% 30.26 in 3.0 mi Calm Calm - N/A   Haze
12:53 PM 32.0 °F - 14.0 °F 48% 30.20 in 10.0 mi Calm Calm - N/A   Clear
1:53 PM 37.9 °F 32.1 °F 17.1 °F 43% 30.17 in 10.0 mi West 8.1 mph - N/A   Clear
2:53 PM 37.0 °F 28.5 °F 16.0 °F 42% 30.21 in 10.0 mi WNW 13.8 mph - N/A   Clear
3:53 PM 36.0 °F 26.0 °F 12.9 °F 39% 30.22 in 10.0 mi NW 17.3 mph 21.9 mph N/A   Clear
4:53 PM 28.0 °F 19.3 °F 12.0 °F 51% 30.24 in 10.0 mi WNW 9.2 mph - N/A   Clear
5:53 PM 25.0 °F 13.6 °F 12.0 °F 58% 30.29 in 10.0 mi NW 12.7 mph - N/A   Clear
6:53 PM 21.9 °F 10.4 °F 9.0 °F 58% 30.31 in 10.0 mi NW 11.5 mph - N/A   Clear
7:53 PM 21.0 °F 8.6 °F 8.1 °F 57% 30.32 in 10.0 mi NW 12.7 mph - N/A   Clear
8:53 PM 18.0 °F 6.1 °F 7.0 °F 62% 30.30 in 10.0 mi NNW 10.4 mph - N/A   Clear
9:53 PM 16.0 °F 5.3 °F 5.0 °F 62% 30.29 in 10.0 mi North 8.1 mph - N/A   Clear
10:53 PM 14.0 °F 2.0 °F 3.9 °F 64% 30.28 in 10.0 mi NNW 9.2 mph - N/A   Clear
11:53 PM 14.0 °F 2.0 °F 3.9 °F 64% 30.25 in 10.0 mi North 9.2 mph - N/A   Clear